| time (UTC) | temp C | wind direction | speed KPH | gust KPH | rain 1hr cm | rain 24hr cm | rain mn cm | humidity % | barometer mb |
| 20260508033604 | 17 | 148 | 4.8 | 11.3 | 0.00 | 0.03 | 0.00 | 67 | 1012.6 |
| 20260508032733 | 17 | 103 | 3.2 | 8.0 | 0.00 | 0.03 | 0.00 | 66 | 1012.3 |
| 20260508031826 | 17 | 120 | 3.2 | 6.4 | 0.00 | 0.03 | 0.00 | 67 | 1012.4 |
| 20260508030905 | 17 | 102 | 6.4 | 9.7 | 0.00 | 0.03 | 0.00 | 65 | 1012.3 |
| 20260508030011 | 17 | 88 | 6.4 | 9.7 | 0.00 | 0.05 | 0.00 | 67 | 1012.1 |
| 20260508025425 | 17 | 94 | 8.0 | 12.9 | 0.00 | 0.05 | 0.00 | 67 | 1012.3 |
| 20260508024504 | 17 | 88 | 6.4 | 11.3 | 0.00 | 0.08 | 0.00 | 67 | 1012.3 |
| 20260508023626 | 17 | 65 | 6.4 | 9.7 | 0.00 | 0.08 | 0.00 | 67 | 1012.2 |
| 20260508022705 | 17 | 45 | 4.8 | 8.0 | 0.00 | 0.08 | 0.00 | 66 | 1012.3 |
| 20260508021825 | 17 | 88 | 3.2 | 6.4 | 0.00 | 0.08 | 0.00 | 64 | 1012.2 |
| 20260508020904 | 17 | 58 | 3.2 | 4.8 | 0.00 | 0.08 | 0.00 | 62 | 1012.3 |
| 20260508020004 | 17 | 52 | 3.2 | 4.8 | 0.00 | 0.08 | 0.00 | 63 | 1012.3 |
| 20260508015405 | 17 | 42 | 3.2 | 4.8 | 0.00 | 0.08 | 0.00 | 64 | 1012.2 |
| 20260508014505 | 17 | 51 | 3.2 | 8.0 | 0.00 | 0.08 | 0.00 | 66 | 1012.5 |
| 20260508013604 | 17 | 66 | 3.2 | 6.4 | 0.00 | 0.10 | 0.00 | 64 | 1012.5 |
| 20260508012704 | 17 | 60 | 3.2 | 4.8 | 0.00 | 0.10 | 0.00 | 64 | 1012.2 |
| 20260508011807 | 17 | 48 | 3.2 | 4.8 | 0.00 | 0.10 | 0.00 | 65 | 1012.5 |
| 20260508010926 | 17 | 50 | 3.2 | 4.8 | 0.00 | 0.10 | 0.00 | 65 | 1012.5 |
| 20260508010004 | 17 | 57 | 3.2 | 6.4 | 0.00 | 0.10 | 0.00 | 64 | 1012.5 |
| 20260508005404 | 17 | 57 | 3.2 | 4.8 | 0.00 | 0.10 | 0.00 | 65 | 1012.4 |
| 20260508004504 | 17 | 51 | 3.2 | 4.8 | 0.00 | 0.10 | 0.00 | 65 | 1012.4 |
| 20260508003606 | 17 | 50 | 3.2 | 6.4 | 0.00 | 0.10 | 0.00 | 65 | 1012.5 |
| 20260508002705 | 17 | 48 | 3.2 | 4.8 | 0.00 | 0.10 | 0.00 | 65 | 1012.7 |
| 20260508001806 | 17 | 52 | 3.2 | 4.8 | 0.00 | 0.10 | 0.00 | 66 | 1013.0 |
| 20260508000925 | 17 | 52 | 3.2 | 6.4 | 0.00 | 0.10 | 0.00 | 67 | 1012.9 |
| 20260508000047 | 17 | 56 | 3.2 | 8.0 | 0.00 | 0.10 | 0.00 | 65 | 1012.9 |
| 20260507235405 | 17 | 58 | 3.2 | 8.0 | 0.00 | 0.10 | 0.00 | 67 | 1013.0 |
| 20260507234504 | 17 | 52 | 3.2 | 4.8 | 0.00 | 0.10 | 0.00 | 65 | 1013.2 |
| 20260507233604 | 17 | 53 | 3.2 | 6.4 | 0.00 | 0.10 | 0.00 | 64 | 1013.2 |
| 20260507232704 | 17 | 50 | 3.2 | 6.4 | 0.00 | 0.10 | 0.00 | 64 | 1013.2 |
| 20260507231806 | 17 | 52 | 3.2 | 6.4 | 0.00 | 0.10 | 0.00 | 66 | 1013.3 |
| 20260507230906 | 17 | 31 | 3.2 | 6.4 | 0.00 | 0.10 | 0.00 | 66 | 1013.5 |
| 20260507230005 | 17 | 27 | 3.2 | 6.4 | 0.00 | 0.10 | 0.00 | 67 | 1013.6 |
| 20260507225405 | 17 | 32 | 3.2 | 6.4 | 0.00 | 0.10 | 0.00 | 67 | 1013.6 |
| 20260507224505 | 17 | 21 | 3.2 | 4.8 | 0.00 | 0.10 | 0.00 | 67 | 1013.7 |
| 20260507223605 | 17 | 22 | 3.2 | 4.8 | 0.00 | 0.10 | 0.00 | 67 | 1013.8 |
| 20260507222727 | 17 | 23 | 3.2 | 4.8 | 0.00 | 0.10 | 0.00 | 65 | 1013.9 |
| 20260507221805 | 17 | 24 | 3.2 | 4.8 | 0.00 | 0.10 | 0.00 | 65 | 1013.9 |
| 20260507220904 | 17 | 14 | 3.2 | 4.8 | 0.00 | 0.10 | 0.00 | 64 | 1013.9 |
| 20260507220025 | 17 | 10 | 3.2 | 4.8 | 0.00 | 0.10 | 0.00 | 64 | 1014.0 |
| 20260507215406 | 17 | 12 | 3.2 | 8.0 | 0.00 | 0.10 | 0.10 | 63 | 1013.9 |
| 20260507214505 | 17 | 5 | 3.2 | 8.0 | 0.00 | 0.10 | 0.10 | 63 | 1014.0 |
| 20260507213604 | 17 | 23 | 3.2 | 6.4 | 0.00 | 0.10 | 0.10 | 62 | 1014.2 |
| 20260507212705 | 17 | 6 | 3.2 | 12.9 | 0.00 | 0.10 | 0.10 | 62 | 1014.4 |
| 20260507211826 | 17 | 4 | 4.8 | 9.7 | 0.00 | 0.10 | 0.10 | 63 | 1014.3 |
| 20260507210905 | 17 | 357 | 4.8 | 12.9 | 0.00 | 0.10 | 0.10 | 65 | 1014.4 |
| 20260507210005 | 16 | 342 | 3.2 | 6.4 | 0.00 | 0.10 | 0.10 | 68 | 1014.6 |
| 20260507205425 | 16 | 330 | 3.2 | 6.4 | 0.00 | 0.10 | 0.10 | 68 | 1014.4 |
| 20260507204505 | 17 | 270 | 3.2 | 9.7 | 0.00 | 0.10 | 0.10 | 66 | 1014.6 |
| 20260507203610 | 17 | 296 | 4.8 | 11.3 | 0.00 | 0.10 | 0.10 | 65 | 1014.4 |
| 20260507202704 | 17 | 320 | 6.4 | 12.9 | 0.00 | 0.10 | 0.10 | 65 | 1014.5 |
| 20260507201805 | 16 | 338 | 4.8 | 9.7 | 0.00 | 0.10 | 0.10 | 69 | 1014.4 |
| 20260507200904 | 16 | 328 | 4.8 | 9.7 | 0.00 | 0.10 | 0.10 | 71 | 1014.6 |
| 20260507200007 | 16 | 336 | 4.8 | 9.7 | 0.00 | 0.13 | 0.10 | 73 | 1014.6 |
| 20260507195404 | 16 | 351 | 1.6 | 9.7 | 0.00 | 0.13 | 0.10 | 72 | 1014.8 |
| 20260507194526 | 16 | 18 | 1.6 | 8.0 | 0.00 | 0.13 | 0.10 | 76 | 1014.7 |
| 20260507193605 | 16 | 16 | 1.6 | 8.0 | 0.00 | 0.13 | 0.10 | 79 | 1014.8 |
| 20260507192704 | 16 | 21 | 1.6 | 4.8 | 0.00 | 0.13 | 0.10 | 82 | 1014.7 |
| 20260507191805 | 16 | 20 | 3.2 | 4.8 | 0.00 | 0.13 | 0.10 | 83 | 1014.6 |
| 20260507190904 | 16 | 16 | 3.2 | 4.8 | 0.00 | 0.13 | 0.10 | 86 | 1014.5 |
| 20260507190026 | 16 | 18 | 3.2 | 4.8 | 0.00 | 0.13 | 0.10 | 86 | 1014.5 |
| 20260507185406 | 16 | 18 | 3.2 | 4.8 | 0.00 | 0.13 | 0.10 | 86 | 1014.6 |
| 20260507184504 | 16 | 20 | 3.2 | 4.8 | 0.00 | 0.13 | 0.10 | 86 | 1014.5 |
| 20260507183605 | 16 | 17 | 3.2 | 4.8 | 0.00 | 0.13 | 0.10 | 86 | 1014.4 |
| 20260507182705 | 16 | 11 | 1.6 | 4.8 | 0.00 | 0.13 | 0.10 | 85 | 1014.6 |
| 20260507181805 | 16 | 16 | 3.2 | 4.8 | 0.00 | 0.13 | 0.10 | 86 | 1014.5 |
| 20260507180925 | 16 | 8 | 1.6 | 3.2 | 0.00 | 0.13 | 0.10 | 85 | 1014.6 |
| 20260507180026 | 17 | 5 | 3.2 | 3.2 | 0.00 | 0.13 | 0.10 | 84 | 1014.6 |
| 20260507175404 | 17 | 16 | 1.6 | 3.2 | 0.00 | 0.13 | 0.10 | 83 | 1014.6 |
| 20260507174505 | 17 | 15 | 1.6 | 3.2 | 0.00 | 0.13 | 0.10 | 82 | 1014.7 |
| 20260507173628 | 17 | 356 | 1.6 | 4.8 | 0.00 | 0.13 | 0.10 | 81 | 1014.7 |
| 20260507172704 | 17 | 344 | 1.6 | 6.4 | 0.00 | 0.13 | 0.10 | 80 | 1014.8 |
| 20260507171825 | 17 | 306 | 4.8 | 8.0 | 0.00 | 0.13 | 0.10 | 79 | 1014.9 |
| 20260507170904 | 18 | 289 | 4.8 | 11.3 | 0.00 | 0.13 | 0.10 | 80 | 1014.8 |
| 20260507170005 | 18 | 289 | 6.4 | 14.5 | 0.00 | 0.13 | 0.10 | 79 | 1014.9 |
| 20260507165404 | 18 | 286 | 6.4 | 14.5 | 0.00 | 0.13 | 0.10 | 80 | 1014.8 |
| 20260507164504 | 18 | 265 | 4.8 | 11.3 | 0.00 | 0.13 | 0.10 | 81 | 1014.9 |
| 20260507163604 | 18 | 248 | 4.8 | 11.3 | 0.00 | 0.13 | 0.10 | 81 | 1014.7 |
| 20260507162704 | 18 | 248 | 4.8 | 12.9 | 0.00 | 0.13 | 0.10 | 81 | 1014.6 |
| 20260507161804 | 18 | 283 | 6.4 | 12.9 | 0.00 | 0.13 | 0.10 | 79 | 1014.8 |
| 20260507160941 | 19 | 257 | 4.8 | 11.3 | 0.00 | 0.13 | 0.10 | 80 | 1014.7 |
| 20260507160025 | 19 | 246 | 4.8 | 12.9 | 0.00 | 0.13 | 0.10 | 78 | 1014.7 |
| 20260507155408 | 19 | 266 | 6.4 | 14.5 | 0.00 | 0.13 | 0.10 | 77 | 1014.7 |
| 20260507154511 | 19 | 279 | 6.4 | 14.5 | 0.00 | 0.13 | 0.10 | 77 | 1014.6 |
| 20260507153626 | 19 | 272 | 9.7 | 14.5 | 0.00 | 0.13 | 0.10 | 79 | 1014.8 |
| 20260507152704 | 19 | 267 | 6.4 | 14.5 | 0.00 | 0.13 | 0.10 | 75 | 1014.7 |
| 20260507151804 | 20 | 255 | 3.2 | 14.5 | 0.00 | 0.13 | 0.10 | 70 | 1014.7 |
| 20260507150904 | 20 | 306 | 4.8 | 14.5 | 0.00 | 0.13 | 0.10 | 66 | 1014.8 |
| 20260507150004 | 20 | 325 | 4.8 | 14.5 | 0.00 | 0.13 | 0.10 | 65 | 1015.1 |
| 20260507145404 | 20 | 320 | 4.8 | 14.5 | 0.00 | 0.13 | 0.10 | 64 | 1014.8 |
| 20260507144511 | 20 | 324 | 3.2 | 11.3 | 0.00 | 0.13 | 0.10 | 62 | 1014.8 |
| 20260507143604 | 20 | 306 | 3.2 | 8.0 | 0.00 | 0.13 | 0.10 | 65 | 1015.1 |
| 20260507142704 | 20 | 301 | 3.2 | 11.3 | 0.00 | 0.13 | 0.10 | 72 | 1014.8 |
| 20260507141804 | 20 | 283 | 6.4 | 16.1 | 0.00 | 0.13 | 0.10 | 69 | 1014.8 |
| 20260507140925 | 19 | 259 | 4.8 | 14.5 | 0.00 | 0.13 | 0.10 | 73 | 1015.3 |
| 20260507140005 | 19 | 232 | 4.8 | 9.7 | 0.00 | 0.13 | 0.10 | 74 | 1015.3 |
| 20260507135426 | 18 | 173 | 4.8 | 9.7 | 0.00 | 0.13 | 0.10 | 75 | 1015.6 |
| 20260507134503 | 18 | 201 | 3.2 | 9.7 | 0.00 | 0.13 | 0.10 | 75 | 1015.5 |
| 20260507133605 | 18 | 246 | 4.8 | 9.7 | 0.00 | 0.13 | 0.10 | 76 | 1015.9 |
| 20260507132704 | 18 | 257 | 4.8 | 11.3 | 0.00 | 0.13 | 0.10 | 76 | 1016.1 |
| 20260507131804 | 18 | 259 | 6.4 | 11.3 | 0.00 | 0.13 | 0.10 | 74 | 1015.9 |
| 20260507130905 | 18 | 238 | 6.4 | 19.3 | 0.00 | 0.13 | 0.10 | 75 | 1016.2 |
| 20260507130006 | 18 | 262 | 8.0 | 19.3 | 0.00 | 0.13 | 0.10 | 71 | 1016.0 |
| 20260507125404 | 18 | 248 | 6.4 | 17.7 | 0.00 | 0.13 | 0.10 | 72 | 1016.2 |
| 20260507124504 | 19 | 176 | 4.8 | 12.9 | 0.00 | 0.13 | 0.10 | 70 | 1016.0 |
| 20260507123604 | 20 | 306 | 4.8 | 12.9 | 0.00 | 0.13 | 0.10 | 65 | 1016.2 |
| 20260507122705 | 20 | 258 | 6.4 | 14.5 | 0.00 | 0.13 | 0.10 | 58 | 1016.1 |
| 20260507121804 | 20 | 328 | 4.8 | 14.5 | 0.00 | 0.13 | 0.10 | 61 | 1016.2 |
| 20260507120904 | 19 | 307 | 4.8 | 12.9 | 0.00 | 0.13 | 0.10 | 69 | 1016.3 |
| 20260507120005 | 20 | 312 | 4.8 | 9.7 | 0.00 | 0.13 | 0.10 | 67 | 1016.1 |
| 20260507115403 | 19 | 310 | 4.8 | 11.3 | 0.00 | 0.13 | 0.10 | 67 | 1016.1 |
| 20260507114525 | 19 | 320 | 4.8 | 11.3 | 0.00 | 0.13 | 0.10 | 69 | 1016.5 |
| 20260507113626 | 18 | 327 | 4.8 | 16.1 | 0.00 | 0.13 | 0.10 | 71 | 1016.3 |
| 20260507112704 | 19 | 355 | 3.2 | 8.0 | 0.00 | 0.13 | 0.10 | 70 | 1016.5 |
| 20260507111825 | 18 | 324 | 6.4 | 14.5 | 0.00 | 0.13 | 0.10 | 72 | 1016.7 |
| 20260507110904 | 18 | 332 | 4.8 | 14.5 | 0.00 | 0.13 | 0.10 | 73 | 1016.6 |
| 20260507110004 | 18 | 337 | 4.8 | 12.9 | 0.00 | 0.13 | 0.10 | 73 | 1016.6 |
| 20260507104505 | 18 | 333 | 3.2 | 11.3 | 0.00 | 0.13 | 0.10 | 74 | 1016.7 |
| 20260507103604 | 17 | 334 | 4.8 | 14.5 | 0.00 | 0.13 | 0.10 | 74 | 1016.6 |
| 20260507102745 | 18 | 323 | 4.8 | 14.5 | 0.00 | 0.13 | 0.10 | 73 | 1016.8 |
| 20260507101804 | 17 | 340 | 4.8 | 9.7 | 0.00 | 0.13 | 0.10 | 74 | 1017.0 |
| 20260507100903 | 17 | 359 | 1.6 | 9.7 | 0.00 | 0.13 | 0.10 | 73 | 1017.2 |
| 20260507100004 | 17 | 337 | 4.8 | 14.5 | 0.00 | 0.13 | 0.10 | 75 | 1017.0 |
| 20260507095404 | 16 | 332 | 6.4 | 14.5 | 0.00 | 0.13 | 0.10 | 77 | 1016.9 |
| 20260507094504 | 16 | 324 | 4.8 | 14.5 | 0.00 | 0.13 | 0.10 | 77 | 1017.0 |
| 20260507093605 | 16 | 324 | 6.4 | 11.3 | 0.00 | 0.13 | 0.10 | 79 | 1017.0 |
| 20260507092703 | 16 | 322 | 4.8 | 11.3 | 0.00 | 0.13 | 0.10 | 78 | 1017.0 |
| 20260507091803 | 16 | 311 | 4.8 | 12.9 | 0.00 | 0.13 | 0.10 | 79 | 1016.9 |
| 20260507090925 | 16 | 330 | 6.4 | 12.9 | 0.00 | 0.13 | 0.10 | 79 | 1016.8 |
| 20260507090027 | 16 | 310 | 4.8 | 12.9 | 0.00 | 0.13 | 0.10 | 78 | 1016.7 |
| 20260507085430 | 16 | 298 | 6.4 | 12.9 | 0.00 | 0.13 | 0.10 | 79 | 1016.8 |
| 20260507084504 | 16 | 330 | 4.8 | 12.9 | 0.00 | 0.13 | 0.10 | 79 | 1016.8 |
| 20260507083603 | 15 | 333 | 4.8 | 19.3 | 0.00 | 0.13 | 0.10 | 80 | 1016.7 |
| 20260507082703 | 15 | 336 | 3.2 | 11.3 | 0.00 | 0.13 | 0.10 | 79 | 1016.8 |
| 20260507081805 | 15 | 348 | 4.8 | 14.5 | 0.00 | 0.13 | 0.10 | 81 | 1016.8 |
| 20260507080904 | 15 | 345 | 3.2 | 9.7 | 0.00 | 0.13 | 0.10 | 78 | 1016.6 |
| 20260507080005 | 15 | 25 | 3.2 | 8.0 | 0.00 | 0.13 | 0.10 | 80 | 1017.0 |
| 20260507075403 | 16 | 356 | 3.2 | 6.4 | 0.00 | 0.13 | 0.10 | 79 | 1017.0 |
| 20260507074503 | 16 | 75 | 1.6 | 6.4 | 0.00 | 0.13 | 0.10 | 79 | 1016.8 |
| 20260507073603 | 16 | 339 | 1.6 | 4.8 | 0.00 | 0.13 | 0.10 | 79 | 1017.0 |
| 20260507072703 | 15 | 111 | 3.2 | 8.0 | 0.00 | 0.13 | 0.10 | 78 | 1017.0 |
| 20260507071803 | 15 | 163 | 3.2 | 8.0 | 0.00 | 0.13 | 0.10 | 78 | 1016.9 |
| 20260507070903 | 14 | 253 | 1.6 | 4.8 | 0.00 | 0.13 | 0.10 | 82 | 1017.4 |
| 20260507070009 | 14 | 241 | 1.6 | 6.4 | 0.00 | 0.13 | 0.10 | 84 | 1017.4 |
| 20260507065403 | 14 | 189 | 1.6 | 4.8 | 0.00 | 0.13 | 0.10 | 82 | 1017.1 |
| 20260507064503 | 14 | 129 | 3.2 | 8.0 | 0.00 | 0.13 | 0.10 | 83 | 1016.9 |
| 20260507063625 | 14 | 134 | 4.8 | 8.0 | 0.00 | 0.13 | 0.10 | 82 | 1016.8 |
| 20260507062703 | 15 | 121 | 4.8 | 9.7 | 0.00 | 0.15 | 0.10 | 82 | 1016.8 |
| 20260507061803 | 14 | 115 | 4.8 | 8.0 | 0.00 | 0.15 | 0.10 | 82 | 1016.6 |
| 20260507060903 | 14 | 111 | 3.2 | 8.0 | 0.00 | 0.15 | 0.10 | 84 | 1016.8 |
| 20260507060003 | 13 | 125 | 4.8 | 8.0 | 0.00 | 0.15 | 0.10 | 85 | 1016.4 |
| 20260507055403 | 13 | 125 | 4.8 | 9.7 | 0.00 | 0.15 | 0.10 | 85 | 1016.6 |
| 20260507054506 | 13 | 111 | 4.8 | 9.7 | 0.00 | 0.15 | 0.10 | 87 | 1016.6 |
| 20260507053604 | 12 | 102 | 4.8 | 9.7 | 0.00 | 0.15 | 0.10 | 89 | 1016.7 |
| 20260507052729 | 12 | 97 | 6.4 | 11.3 | 0.00 | 0.15 | 0.10 | 89 | 1016.5 |
| 20260507051805 | 12 | 97 | 8.0 | 12.9 | 0.00 | 0.15 | 0.10 | 90 | 1016.4 |
| 20260507050907 | 12 | 95 | 8.0 | 9.7 | 0.00 | 0.18 | 0.10 | 91 | 1016.6 |
| 20260507050006 | 12 | 103 | 6.4 | 14.5 | 0.00 | 0.18 | 0.10 | 92 | 1016.4 |
| 20260507045404 | 12 | 109 | 8.0 | 14.5 | 0.00 | 0.18 | 0.10 | 93 | 1016.5 |
| 20260507044505 | 12 | 116 | 8.0 | 14.5 | 0.00 | 0.18 | 0.10 | 93 | 1016.4 |
| 20260507043605 | 12 | 113 | 8.0 | 14.5 | 0.03 | 0.20 | 0.10 | 94 | 1016.2 |
| 20260507042704 | 11 | 117 | 9.7 | 12.9 | 0.03 | 0.20 | 0.10 | 94 | 1016.2 |
| 20260507041805 | 11 | 115 | 8.0 | 17.7 | 0.03 | 0.20 | 0.10 | 94 | 1016.3 |
| 20260507040911 | 12 | 121 | 8.0 | 16.1 | 0.03 | 0.20 | 0.10 | 94 | 1016.2 |
| 20260507040004 | 12 | 116 | 8.0 | 14.5 | 0.05 | 0.20 | 0.10 | 94 | 1016.2 |
| 20260507035404 | 12 | 119 | 6.4 | 11.3 | 0.05 | 0.20 | 0.10 | 94 | 1016.4 |
| 20260507034505 | 12 | 120 | 6.4 | 12.9 | 0.05 | 0.20 | 0.10 | 93 | 1016.2 |